STARLINK-1764, 46343

Orbit data source: Space-Track

STARLINK-1764, 46343 is a payload satellite owned by SpaceX/Seattle (US) in LEO that was launched on Thu, 03 Sep 2020 UTC via an FALCON 9 launch vehicle from the Air Force Eastern Test Range (AFETR). Payload-class satellites include a variety of spacecraft equipped with specific instruments for various scientific and technological missions. These include communications satellites like Starlink; space stations such as the ISS; scientific satellites like the Hubble; Earth observation satellites from companies like Planet Labs, Umbra, and HawkEye 360; GPS; miniature CubeSats for education and research; and military/defense satellites.

Loading next visibility...
Identifier
46343, 2020-062U
Orbit
LEO
Country
Flag of USUS
Related business
Manufacturer
SpaceX/Seattle
Mission
Operational Commercial Communications
Bus & Motor
STARLINK, Unknown motor
Mass
260 kg wet, ~248 kg dry
Launch date (UTC)
2020-09-03 (5 years ago)
Launch vehicle
FALCON 9
Launch site
Air Force Eastern Test Range (AFETR)
Object type
Payload
Rocket body
Debris
Shape & HBR
Box + 1 Pan, 10.1 m
Radar Cross Section
13.562 m², Large (>1 m²)

Expand to show TLE details & history
Last TLE update: 13 hours ago

TLE from 13 hours ago
0 STARLINK-1764
1 46343U 20062U   25286.74932502  .00003299  00000-0  24024-3 0  9993
2 46343  53.0540 296.2597 0001356  87.0509 273.0635 15.06403050282443
Epoch: 2025-10-13T17:59Z
TLE epoch observation values (Epoch: 2025-10-13T17:59:01.681Z)
Latitude
-0.00005°
Longitude
3.95502°
Altitude
548.031 km
Speed
7.589 km/s
True Right ascension
19h 45m 02s
True Declination
0° 00' 00"
Sunlit
Object was in daylight at epoch
Visualization orbit readout
Latitude
Unknown
Longitude
Unknown
Altitude
Unknown
Speed
Unknown
Apparent Right ascension
Unknown
Apparent Declination
Unknown
Sunlit
N/A
Visualization observer readout
Local Sidereal Time
01:26:16
Azimuth
Unknown
Elevation
Unknown
Doppler factor
Unknown
Orbital elements
Apogee altitude
548.412 km
Perigee altitude
546.534 km
Semi-major axis
6,925.61 km
Eccentricity
0.00014
Inclination
53.054°
RAAN
296.2597°
Arg. of periapsis
87.0509°
True anomaly
273.04798°
Mean anomaly
273.0635°
Eccentric anomaly
273.05574°
Mean motion
3.76579 °/min
Orbital period
95.6 mins
BSTAR
0.00024024
Loading maneuver chart data...
Computing Atmospheric mass density...
Loading historical data...
Loading historical data...
Loading historical data...
Loading historical data...
Loading historical data...
Loading historical data...
Loading historical data...

Documentation

Showing up to 5 results
|